Wind_Speed
24 24 23 23 21 18 16 15 13 12 11 9 8 8 7 6 6 7 7 7 7 7 8 8 6 3 3 5 6 6 6 6 7 7 7 8 8 10 13 15 16 17
24 24 23 22 20 17 15 14 12 11 10 8 8 8 7 6 6 6 7 6 6 6 7 8 5 2 2 5 6 7 6 6 7 7 7 7 8 9 10 13 15 17
24 23 22 20 18 16 14 13 12 10 10 10 10 8 6 5 6 7 7 5 4 5 7 8 5 2 2 4 6 7 7 7 8 7 7 7 7 7 7 9 12 15
22 21 19 17 15 15 14 13 12 11 11 12 11 9 7 5 6 8 7 6 5 4 6 8 6 2 1 3 5 7 8 8 8 7 7 7 7 7 7 8 10 13
17 17 15 14 15 16 15 13 12 11 12 13 12 10 8 7 7 8 8 7 6 5 7 9 7 4 2 3 4 6 7 8 7 6 7 7 8 8 8 9 10 12
13 13 12 13 15 16 15 13 11 11 12 12 12 10 8 7 7 8 8 7 6 6 8 10 8 4 4 4 5 5 6 6 6 5 6 7 8 8 9 10 11 13
16 16 15 14 15 15 14 12 10 9 11 12 11 9 7 7 7 7 7 6 6 7 8 9 6 4 5 5 6 6 6 5 5 6 6 8 9 10 10 10 11 14
20 20 17 14 14 14 13 11 9 9 10 11 10 8 7 7 6 6 6 6 7 7 6 7 5 5 5 5 6 7 6 6 6 7 8 10 11 11 11 10 11 14
20 20 16 14 14 14 12 11 10 10 10 9 7 6 6 6 5 5 5 6 8 6 5 6 6 6 6 6 7 8 8 7 7 9 11 12 12 12 12 10 11 14
21 21 18 15 15 15 13 13 11 10 9 7 5 6 7 6 5 5 4 5 7 7 7 6 6 7 7 7 8 8 9 8 8 10 11 12 12 12 12 12 14 16
21 22 19 17 17 16 13 13 12 10 8 5 6 7 9 8 7 7 5 4 5 7 8 8 7 7 8 8 9 9 9 9 9 10 11 10 11 12 13 14 15 18
20 21 19 16 16 15 13 12 12 11 8 6 6 8 9 8 7 7 6 5 4 6 8 9 9 8 8 9 9 9 8 9 11 12 10 9 10 10 11 12 13 15
19 18 17 14 13 13 13 12 13 13 11 9 8 9 9 8 8 7 7 6 6 7 7 8 9 9 9 8 9 9 8 9 11 12 11 9 9 9 9 10 11 12
17 16 16 15 14 15 15 14 13 13 11 10 10 10 9 9 8 8 9 9 10 10 9 9 10 10 10 10 9 10 10 10 11 12 11 11 11 11 10 10 9 10
15 14 15 15 14 14 13 11 10 10 8 7 8 9 10 9 9 9 11 12 13 13 13 12 12 12 12 12 12 11 11 12 12 12 12 12 13 14 13 12 11 10
13 13 14 14 13 11 9 8 8 7 5 3 2 4 7 8 8 9 11 12 12 14 16 16 15 14 14 13 13 13 12 12 14 13 13 13 14 15 15 15 14 13
14 13 13 12 11 11 10 9 8 5 4 3 1 1 2 3 4 7 10 10 9 10 14 17 17 17 15 14 14 15 15 14 15 15 15 14 15 16 16 17 17 16
19 17 15 14 12 10 9 7 4 3 3 4 3 1 1 2 3 3 6 8 9 9 11 13 15 17 18 17 15 15 17 17 17 18 18 18 17 17 17 18 18 18
27 26 24 22 19 15 13 11 9 5 3 2 1 2 2 1 2 4 6 7 7 8 8 9 10 12 16 19 19 18 18 19 19 19 20 20 21 20 19 19 19 20
30 30 28 27 25 22 20 18 17 14 11 8 6 3 1 1 2 5 8 9 8 8 8 8 7 8 10 15 18 20 21 22 23 23 22 22 22 23 23 22 22 22
28 27 27 25 24 24 22 21 20 19 17 15 13 10 6 3 2 5 8 8 9 9 9 9 8 8 8 10 12 15 17 19 22 24 25 25 25 25 26 25 25 25
26 25 25 24 23 22 22 21 20 19 17 16 14 12 10 7 6 6 7 7 8 8 9 10 9 9 11 11 12 13 15 16 18 20 22 24 26 27 28 29 29 29
27 26 25 23 22 22 22 21 19 18 17 15 13 12 11 9 8 8 9 10 9 9 10 10 9 9 11 13 13 14 15 17 18 20 21 22 23 25 26 28 30 31
26 26 25 24 23 22 21 19 18 17 16 15 14 13 12 11 11 10 10 10 10 10 11 12 11 11 11 12 13 14 15 16 17 19 22 23 24 25 25 26 27 29
23 23 23 23 22 21 20 18 17 16 15 14 14 13 13 13 12 12 12 11 12 12 12 13 14 14 13 13 14 14 16 17 17 18 20 22 24 25 26 26 26 27
21 21 20 20 19 18 17 16 15 14 14 14 14 13 13 13 13 14 13 13 13 13 13 13 15 16 16 15 16 16 17 18 18 18 19 21 23 24 26 26 26 26
Wind_Direction
186 184 184 185 182 178 176 175 174 172 172 173 172 170 174 178 173 174 174 168 173 179 182 182 173 163 170 172 181 192 196 199 195 196 203 209 214 207 204 207 209 211
184 182 181 181 179 178 177 176 176 177 179 181 182 180 179 182 181 180 177 172 172 178 183 182 173 164 179 179 184 193 197 194 190 193 198 204 209 206 206 208 210 212
181 180 180 180 179 177 176 177 177 182 187 188 191 190 186 187 189 189 192 198 196 184 182 181 168 148 181 192 196 202 201 192 190 195 195 192 193 191 193 199 204 209
179 179 179 181 182 181 180 180 180 186 191 191 191 190 190 191 190 191 199 216 223 196 180 180 172 156 196 212 209 204 195 188 190 194 188 180 179 179 177 182 192 199
175 174 175 181 186 185 184 184 186 191 192 192 191 188 190 193 193 194 193 206 222 206 184 181 175 172 209 217 204 196 188 183 185 189 186 179 181 187 188 183 183 185
159 164 174 184 189 188 188 190 191 190 191 193 190 186 190 196 199 198 193 200 215 202 188 185 180 183 210 205 189 186 185 181 180 186 188 182 178 179 180 179 177 176
160 169 182 188 191 195 196 193 187 184 188 191 189 187 194 198 194 194 199 210 208 193 187 188 190 207 217 206 197 195 193 189 188 192 187 171 162 159 161 169 174 173
165 169 181 187 185 190 193 188 179 179 186 190 188 188 193 192 189 196 211 216 206 196 192 194 208 228 224 216 213 208 205 200 192 190 181 164 154 152 155 169 178 174
165 165 175 179 173 176 180 177 175 179 185 189 188 184 182 181 186 201 211 209 204 202 203 209 222 233 234 234 226 215 211 208 195 187 179 166 159 155 156 166 173 171
166 168 176 178 175 177 175 172 174 178 182 186 182 169 161 161 162 168 180 198 207 212 217 222 227 233 240 241 229 219 215 210 198 190 184 176 173 169 164 165 164 163
163 169 178 179 177 176 170 168 172 176 181 184 177 164 156 157 160 159 165 186 205 216 219 224 233 240 242 238 229 226 225 220 209 199 193 191 192 188 180 174 169 165
161 172 178 177 174 174 172 173 175 177 181 183 182 178 174 176 180 180 185 195 207 220 220 226 237 244 247 244 237 234 234 228 216 208 206 206 203 198 192 189 185 180
167 176 176 172 176 180 179 180 181 180 183 188 191 195 196 200 207 213 219 223 225 230 229 229 231 238 249 251 242 239 240 232 220 215 215 216 213 206 200 197 195 193
159 165 168 170 178 180 179 183 185 182 186 196 204 212 217 222 229 237 240 238 235 235 234 228 226 233 242 246 244 246 245 235 225 222 221 223 222 219 215 211 207 201
149 153 160 163 167 170 174 179 176 173 184 202 215 223 227 233 244 250 248 242 239 238 236 231 231 235 239 242 243 245 243 234 226 227 231 229 225 224 228 231 229 223
134 135 141 143 143 145 152 165 165 165 180 194 217 230 224 231 250 252 246 246 247 244 239 235 235 238 241 244 241 237 238 235 229 229 233 231 227 226 231 237 241 244
110 110 115 118 119 124 136 160 175 175 175 176 197 278 213 222 262 252 241 247 255 253 245 240 240 242 243 245 240 234 233 233 232 232 233 233 233 234 238 242 245 248
94 93 90 87 90 102 112 126 152 175 186 190 205 294 38 56 17 314 266 257 256 256 253 247 247 249 246 244 241 237 235 235 236 237 238 239 241 243 245 248 248 250
85 85 81 79 82 88 88 84 86 98 124 155 202 302 336 35 37 359 330 302 277 264 259 253 253 254 250 246 244 240 240 241 242 243 244 244 245 246 247 248 247 248
77 77 75 75 77 80 81 77 74 75 78 74 63 40 348 268 273 306 315 312 304 295 284 273 265 261 257 253 250 247 246 246 247 248 248 248 249 249 250 250 249 247
69 70 69 68 69 71 71 68 64 64 65 63 62 65 62 51 359 321 313 308 307 307 302 297 292 282 274 266 262 261 259 256 254 251 251 252 252 252 253 253 252 251
61 63 62 60 61 60 58 55 52 50 48 47 52 58 54 48 40 14 348 334 327 322 313 305 301 300 297 289 280 274 270 267 264 260 257 256 255 256 255 255 254 254
53 54 54 53 53 51 48 44 40 36 33 29 29 32 29 22 17 8 359 349 342 338 331 317 304 308 316 314 307 298 287 279 273 268 264 261 259 259 258 256 256 255
45 45 45 45 45 44 41 37 32 28 22 17 13 11 7 1 353 345 344 343 339 336 334 325 312 311 318 320 320 319 310 301 293 281 272 266 264 262 260 258 257 257
41 40 39 39 39 37 35 32 28 23 15 9 5 0 355 351 343 334 332 334 333 331 329 324 315 309 312 313 315 319 317 313 310 299 286 278 273 269 265 262 259 257
35 33 32 34 34 32 30 28 25 19 12 6 2 357 351 345 339 335 331 330 330 328 326 324 318 310 308 309 311 315 316 314 311 305 295 288 281 275 270 266 262 259
Height
803 805 807 810 811 812 813 815 816 817 818 820 821 823 824 825 826 827 827 827 827 827 827 827 827 827 827 826 826 826 827 828 828 829 830 831 832 832 833 833 833 834
803 805 808 810 812 813 814 815 817 818 819 820 821 822 824 825 826 827 827 828 827 827 827 827 827 827 827 827 827 827 827 828 828 829 830 831 832 832 833 833 834 834
804 806 808 811 812 814 815 816 817 818 819 820 821 822 823 824 826 826 827 828 828 828 828 828 828 827 827 827 827 828 828 828 828 829 830 831 832 832 833 833 834 834
805 807 809 812 813 814 815 816 817 818 819 820 820 821 822 823 825 825 827 827 827 828 828 828 829 828 828 828 828 829 829 829 829 829 830 831 832 832 833 833 834 834
807 809 811 813 814 815 816 816 817 818 819 820 820 821 822 823 824 825 826 827 827 828 829 829 829 829 829 829 829 830 830 830 830 830 831 831 832 832 833 833 833 834
808 810 813 814 815 816 816 816 817 818 819 820 820 821 822 823 824 825 826 827 827 828 829 829 830 830 830 830 831 831 831 832 832 831 832 832 832 832 833 833 833 833
807 810 813 814 815 816 817 817 818 818 819 820 821 822 823 823 824 825 826 827 828 828 829 830 831 831 831 831 832 833 833 833 833 833 833 833 833 833 833 834 834 834
806 809 811 812 815 817 818 818 819 819 820 821 822 822 823 824 825 826 826 827 828 829 830 831 831 832 832 832 833 833 834 834 834 834 834 834 834 835 835 835 835 835
807 808 809 812 814 817 818 819 819 820 821 822 822 823 823 824 825 826 826 828 829 829 830 831 832 832 833 833 834 834 835 835 835 835 836 836 836 836 836 836 836 836
806 807 809 811 814 815 817 818 819 821 822 823 823 823 824 825 825 826 827 828 829 830 831 831 832 833 833 834 834 835 835 836 836 836 837 837 838 838 838 838 838 837
806 808 809 811 813 814 816 818 819 821 823 824 824 824 825 825 825 826 827 828 829 830 831 832 832 833 833 834 835 835 836 836 837 837 838 838 839 839 840 840 839 839
808 809 810 811 812 814 816 818 819 821 822 824 825 825 825 826 826 826 827 828 829 830 831 832 833 833 833 834 835 835 836 836 837 838 838 839 839 840 841 841 841 841
808 809 810 812 814 815 817 818 819 820 822 823 825 826 826 826 826 827 827 829 830 831 832 833 833 833 834 834 835 835 836 836 837 838 838 839 840 840 841 842 842 842
809 810 811 813 815 816 818 819 819 820 822 823 825 825 826 826 826 827 828 829 830 831 832 833 833 834 834 834 835 835 836 836 836 837 838 839 840 840 841 841 842 842
810 811 812 813 814 816 819 820 820 820 822 824 825 825 826 826 826 827 827 829 830 831 832 833 833 834 834 834 835 835 835 835 836 837 838 838 839 840 840 841 841 842
810 811 812 813 814 816 818 820 820 821 822 824 825 825 825 826 826 827 827 829 830 830 832 832 833 834 834 835 835 835 835 835 836 836 837 837 838 839 840 840 841 841
812 813 813 813 815 816 817 819 820 822 823 824 825 825 826 825 826 827 828 829 830 830 831 832 833 834 834 835 835 835 835 835 836 836 836 837 837 838 839 839 840 840
813 813 813 814 815 816 817 819 821 823 824 824 825 826 826 826 826 828 829 830 830 830 831 832 832 833 834 835 835 835 835 836 836 836 836 836 836 836 837 838 839 840
813 814 814 815 815 816 817 819 821 823 823 824 824 825 825 825 826 827 829 830 831 831 831 831 832 832 833 834 834 835 835 835 835 836 835 835 835 835 836 836 837 838
815 815 816 817 818 817 818 820 821 822 822 823 824 824 825 825 825 826 829 830 831 831 831 831 831 832 832 833 833 834 834 835 835 835 835 835 835 835 835 835 836 837
817 818 818 819 820 820 820 821 821 822 823 824 825 824 824 824 825 827 829 830 830 830 830 830 831 831 832 832 832 833 833 833 834 834 834 834 834 834 834 835 835 836
820 820 820 821 821 821 822 822 823 824 824 825 826 826 826 826 827 828 829 829 829 829 829 829 829 830 831 831 832 832 832 832 832 832 832 832 832 832 833 833 834 834
823 823 822 823 822 822 823 824 825 825 825 826 826 826 827 828 829 829 830 830 829 828 828 827 828 828 829 829 830 830 831 831 830 830 830 829 829 829 830 831 831 832
826 826 826 826 825 824 825 825 826 826 826 827 827 827 828 829 830 830 830 830 829 828 827 827 826 827 827 828 828 828 828 828 828 828 827 827 826 826 827 828 829 829
827 828 829 828 828 828 827 827 827 827 828 828 828 828 829 829 829 829 830 829 829 828 827 826 825 826 826 826 826 826 826 825 825 825 825 825 824 824 824 825 826 827
829 829 830 830 831 831 830 830 829 829 829 829 829 829 829 829 829 828 828 828 827 827 826 826 825 824 824 824 824 824 824 823 823 823 823 822 822 822 822 823 824 824